Torna al catalogo

STPSAT 2

USA 217

AttivoMilitareLEO
NORAD 37222·PAYLOAD·🇺🇸 United States

Lanciato Nov 20, 2010 da Kodiak Launch Complex

Loading…

Prossimi Passaggi (prossime 24 ore)

TLE

ObsoletoSource: Mike McCants

Epoca: Jul 14, 2026, 21:56 UTC

1 37222U 10062A   26195.91457206 0.00000100  00000-0  12492-4 0    08
2 37222  71.9600 101.0342 0021410  53.3403 306.6597 14.82146645    05

Traccia STPSAT 2 in tempo reale con AllMySat

Download on the App Store